Regional Weather Roundup
Issued by NWS Goodland, KS

Home | Current Version | Previous Version | Text Only | Print | Product List | Glossary Off
Versions: 1 2 3 4 5 6 7 8 9 10 11 12 13 14 15 16 17 18 19 20 21 22 23 24 25 26 27 28 29 30 31 32 33 34 35 36 37 38 39 40 41 42 43 44 45 46 47 48 49 50

000
ASUS43 KGLD 210508
RWRGLD

GOODLAND FORECAST AREA HOURLY WEATHER ROUNDUP
NATIONAL WEATHER SERVICE GOODLAND KS
1100 PM MDT FRI APR 20 2018

...OFFICIAL OBSERVATIONS...

CITY           SKY/WX    TMP DP  RH WIND       PRES   REMARKS
GOODLAND KS    LGT RAIN  40  39  97 SE16G29   30.12F
HILL CITY KS   LGT RAIN  45  44  97 E12       30.22S
IMPERIAL NEB   CLOUDY    39  38  96 NE16      30.19R
MCCOOK NEB     LGT RAIN  43  41  93 E13       30.21R
AKRON CO       LGT RAIN  35  35 100 SE16      30.12S FOG
BURLINGTON CO  LGT RAIN  39  38  96 SE25G35   30.09F
LIMON CO       LGT SNOW  32  32 100 SE13      30.08F VSB 3/4
$$

...UNOFFICIAL OBSERVATIONS...

CITY           SKY/WX    TMP DP  RH WIND       PRES   REMARKS
COLBY KS       LGT RAIN  43  43 100 SE14G23   30.18S
NORTON KS      RAIN      43  41  93 E10       30.23
SHARON SPRINGS   N/A     41  39  93 E17G33      N/A
TRIBUNE KS     CLOUDY    43  39  87 E22       30.11F
KIT CARSON CO    N/A     38  34  87 CALM        N/A
YUMA CO        DRIZZLE   36  34  93 E12G18    30.14S
$$



USA.gov is the U.S. government's official web portal to all federal, state and local government web resources and services.